Time,TemperatureF,DewpointF,PressureIn,WindDirection,WindDirectionDegrees,WindSpeedMPH,WindSpeedGustMPH,Humidity,HourlyPrecipIn,Conditions,Clouds,dailyrainin,SolarRadiationWatts/m^2,SoftwareType,DateUTC
2013-12-04 00:02:00,37.0,33.0,-100.00,NNW,340,6.0,8.0,86,0.00,,,0.00,0.000000,,2013-12-04 05:02:00,
2013-12-04 00:10:00,36.0,33.0,-100.00,NNE,14,3.0,8.0,89,0.00,,,0.00,0.000000,,2013-12-04 05:10:00,
2013-12-04 00:42:00,36.0,33.0,-100.00,NNE,14,3.0,8.0,89,0.00,,,0.00,0.000000,,2013-12-04 05:42:00,
2013-12-04 00:53:00,36.0,33.0,-100.00,NNE,14,3.0,8.0,89,0.00,,,0.00,0.000000,,2013-12-04 05:53:00,
2013-12-04 01:03:00,36.0,33.0,-100.00,NNE,14,3.0,8.0,89,0.00,,,0.00,0.000000,,2013-12-04 06:03:00,
2013-12-04 01:10:00,36.0,33.0,-100.00,North,10,4.0,8.0,89,0.00,,,0.00,0.000000,,2013-12-04 06:10:00,
2013-12-04 01:42:00,36.0,33.0,-100.00,North,10,4.0,8.0,89,0.00,,,0.00,0.000000,,2013-12-04 06:42:00,
2013-12-04 01:52:00,36.0,33.0,-100.00,North,10,4.0,8.0,89,0.00,,,0.00,0.000000,,2013-12-04 06:52:00,
2013-12-04 02:02:00,36.0,33.0,-100.00,North,10,4.0,8.0,89,0.00,,,0.00,0.000000,,2013-12-04 07:02:00,
2013-12-04 02:10:00,36.0,34.0,-100.00,NNW,336,5.0,7.0,92,0.00,,,0.00,0.000000,,2013-12-04 07:10:00,
2013-12-04 02:42:00,36.0,34.0,-100.00,NNW,336,5.0,7.0,92,0.00,,,0.00,0.000000,,2013-12-04 07:42:00,
2013-12-04 02:52:00,36.0,34.0,-100.00,NNW,336,5.0,7.0,92,0.00,,,0.00,0.000000,,2013-12-04 07:52:00,
2013-12-04 03:02:00,36.0,34.0,-100.00,NNW,336,5.0,7.0,92,0.00,,,0.00,0.000000,,2013-12-04 08:02:00,
2013-12-04 03:10:00,36.0,33.0,-100.00,North,356,3.0,6.0,89,0.00,,,0.00,0.000000,,2013-12-04 08:10:00,
2013-12-04 03:42:00,36.0,33.0,-100.00,North,356,3.0,6.0,89,0.00,,,0.00,0.000000,,2013-12-04 08:42:00,
2013-12-04 03:52:00,36.0,33.0,-100.00,North,356,3.0,6.0,89,0.00,,,0.00,0.000000,,2013-12-04 08:52:00,
2013-12-04 04:02:00,36.0,33.0,-100.00,North,356,3.0,6.0,89,0.00,,,0.00,0.000000,,2013-12-04 09:02:00,
2013-12-04 04:10:00,37.0,34.0,-100.00,North,5,2.0,4.0,88,0.00,,,0.00,0.000000,,2013-12-04 09:10:00,
2013-12-04 04:43:00,37.0,34.0,-100.00,North,5,2.0,4.0,88,0.00,,,0.00,0.000000,,2013-12-04 09:43:00,
2013-12-04 04:54:00,37.0,34.0,-100.00,North,5,2.0,4.0,88,0.00,,,0.00,0.000000,,2013-12-04 09:54:00,
2013-12-04 05:03:00,37.0,34.0,-100.00,North,5,2.0,4.0,88,0.00,,,0.00,0.000000,,2013-12-04 10:03:00,
2013-12-04 05:10:00,37.0,33.0,-100.00,SW,217,3.0,4.0,86,0.00,,,0.00,0.000000,,2013-12-04 10:10:00,
2013-12-04 05:43:00,37.0,33.0,-100.00,SW,217,3.0,4.0,86,0.00,,,0.00,0.000000,,2013-12-04 10:43:00,
2013-12-04 05:53:00,37.0,33.0,-100.00,SW,217,3.0,4.0,86,0.00,,,0.00,0.000000,,2013-12-04 10:53:00,
2013-12-04 06:02:00,37.0,33.0,-100.00,SW,217,3.0,4.0,86,0.00,,,0.00,0.000000,,2013-12-04 11:02:00,
2013-12-04 06:10:00,36.0,33.0,-100.00,WSW,239,2.0,5.0,88,0.00,,,0.00,0.000000,,2013-12-04 11:10:00,
2013-12-04 06:42:00,36.0,33.0,-100.00,WSW,239,2.0,5.0,88,0.00,,,0.00,0.000000,,2013-12-04 11:42:00,
2013-12-04 06:53:00,36.0,33.0,-100.00,WSW,239,2.0,5.0,88,0.00,,,0.00,0.000000,,2013-12-04 11:53:00,
2013-12-04 07:02:00,36.0,33.0,-100.00,WSW,239,2.0,5.0,88,0.00,,,0.00,0.000000,,2013-12-04 12:02:00,
2013-12-04 07:10:00,34.0,32.0,-100.00,East,80,3.0,4.0,93,0.00,,,0.00,1.000000,,2013-12-04 12:10:00,
2013-12-04 07:42:00,34.0,32.0,-100.00,East,80,3.0,4.0,93,0.00,,,0.00,1.000000,,2013-12-04 12:42:00,
2013-12-04 07:52:00,34.0,32.0,-100.00,East,80,3.0,4.0,93,0.00,,,0.00,1.000000,,2013-12-04 12:52:00,
2013-12-04 08:02:00,34.0,32.0,-100.00,East,80,3.0,4.0,93,0.00,,,0.00,1.000000,,2013-12-04 13:02:00,
2013-12-04 08:10:00,34.0,32.0,-100.00,ESE,109,4.0,7.0,93,0.00,,,0.00,27.000000,,2013-12-04 13:10:00,
2013-12-04 08:42:00,34.0,32.0,-100.00,ESE,109,4.0,7.0,93,0.00,,,0.00,27.000000,,2013-12-04 13:42:00,
2013-12-04 08:52:00,34.0,32.0,-100.00,ESE,109,4.0,7.0,93,0.00,,,0.00,27.000000,,2013-12-04 13:52:00,
2013-12-04 09:02:00,34.0,32.0,-100.00,ESE,109,4.0,7.0,93,0.00,,,0.00,27.000000,,2013-12-04 14:02:00,
2013-12-04 09:10:00,41.0,39.0,-100.00,East,98,4.0,6.0,93,0.00,,,0.00,122.000000,,2013-12-04 14:10:00,
2013-12-04 09:52:00,41.0,39.0,-100.00,East,98,4.0,6.0,93,0.00,,,0.00,122.000000,,2013-12-04 14:52:00,
2013-12-04 10:02:00,41.0,39.0,-100.00,East,98,4.0,6.0,93,0.00,,,0.00,122.000000,,2013-12-04 15:02:00,
2013-12-04 10:10:00,45.0,38.0,-100.00,ESE,116,4.0,7.0,75,0.00,,,0.00,326.000000,,2013-12-04 15:10:00,
2013-12-04 10:54:00,45.0,38.0,-100.00,ESE,116,4.0,7.0,75,0.00,,,0.00,326.000000,,2013-12-04 15:54:00,
2013-12-04 11:04:00,45.0,38.0,-100.00,ESE,116,4.0,7.0,75,0.00,,,0.00,326.000000,,2013-12-04 16:04:00,
2013-12-04 11:10:00,45.0,35.0,-100.00,SSE,165,3.0,7.0,68,0.00,,,0.00,306.000000,,2013-12-04 16:10:00,
2013-12-04 11:43:00,45.0,35.0,-100.00,SSE,165,3.0,7.0,68,0.00,,,0.00,306.000000,,2013-12-04 16:43:00,
2013-12-04 11:53:00,45.0,35.0,-100.00,SSE,165,3.0,7.0,68,0.00,,,0.00,306.000000,,2013-12-04 16:53:00,
2013-12-04 12:04:00,45.0,35.0,-100.00,SSE,165,3.0,7.0,68,0.00,,,0.00,306.000000,,2013-12-04 17:04:00,
2013-12-04 12:10:00,46.0,37.0,-100.00,ESE,108,4.0,6.0,71,0.00,,,0.00,144.000000,,2013-12-04 17:10:00,
2013-12-04 12:43:00,46.0,37.0,-100.00,ESE,108,4.0,6.0,71,0.00,,,0.00,144.000000,,2013-12-04 17:43:00,
2013-12-04 12:53:00,46.0,37.0,-100.00,ESE,108,4.0,6.0,71,0.00,,,0.00,144.000000,,2013-12-04 17:53:00,
2013-12-04 13:02:00,46.0,37.0,-100.00,ESE,108,4.0,6.0,71,0.00,,,0.00,144.000000,,2013-12-04 18:02:00,
2013-12-04 13:10:00,47.0,37.0,-100.00,SE,124,4.0,8.0,67,0.00,,,0.00,180.000000,,2013-12-04 18:10:00,
2013-12-04 13:42:00,47.0,37.0,-100.00,SE,124,4.0,8.0,67,0.00,,,0.00,180.000000,,2013-12-04 18:42:00,
2013-12-04 13:52:00,47.0,37.0,-100.00,SE,124,4.0,8.0,67,0.00,,,0.00,180.000000,,2013-12-04 18:52:00,
2013-12-04 14:02:00,47.0,37.0,-100.00,SE,124,4.0,8.0,67,0.00,,,0.00,180.000000,,2013-12-04 19:02:00,
2013-12-04 14:10:00,47.0,35.0,-100.00,SE,135,6.0,9.0,62,0.00,,,0.00,168.000000,,2013-12-04 19:10:00,
2013-12-04 14:42:00,47.0,35.0,-100.00,SE,135,6.0,9.0,62,0.00,,,0.00,168.000000,,2013-12-04 19:42:00,
2013-12-04 14:52:00,47.0,35.0,-100.00,SE,135,6.0,9.0,62,0.00,,,0.00,168.000000,,2013-12-04 19:52:00,
2013-12-04 15:02:00,47.0,35.0,-100.00,SE,135,6.0,9.0,62,0.00,,,0.00,168.000000,,2013-12-04 20:02:00,
2013-12-04 15:10:00,46.0,36.0,-100.00,ESE,112,5.0,7.0,68,0.00,,,0.00,87.000000,,2013-12-04 20:10:00,
2013-12-04 15:42:00,46.0,36.0,-100.00,ESE,112,5.0,7.0,68,0.00,,,0.00,87.000000,,2013-12-04 20:42:00,
2013-12-04 15:52:00,46.0,36.0,-100.00,ESE,112,5.0,7.0,68,0.00,,,0.00,87.000000,,2013-12-04 20:52:00,
2013-12-04 16:02:00,46.0,36.0,-100.00,ESE,112,5.0,7.0,68,0.00,,,0.00,87.000000,,2013-12-04 21:02:00,
2013-12-04 16:10:00,45.0,37.0,-100.00,ESE,122,5.0,9.0,72,0.00,,,0.00,60.000000,,2013-12-04 21:10:00,
2013-12-04 16:44:00,45.0,37.0,-100.00,ESE,122,5.0,9.0,72,0.00,,,0.00,60.000000,,2013-12-04 21:44:00,
2013-12-04 16:54:00,45.0,37.0,-100.00,ESE,122,5.0,9.0,72,0.00,,,0.00,60.000000,,2013-12-04 21:54:00,
2013-12-04 17:04:00,45.0,37.0,-100.00,ESE,122,5.0,9.0,72,0.00,,,0.00,60.000000,,2013-12-04 22:04:00,
2013-12-04 17:10:00,45.0,37.0,-100.00,ESE,107,5.0,7.0,74,0.00,,,0.00,2.000000,,2013-12-04 22:10:00,
2013-12-04 17:43:00,45.0,37.0,-100.00,ESE,107,5.0,7.0,74,0.00,,,0.00,2.000000,,2013-12-04 22:43:00,
2013-12-04 17:53:00,45.0,37.0,-100.00,ESE,107,5.0,7.0,74,0.00,,,0.00,2.000000,,2013-12-04 22:53:00,
2013-12-04 18:02:00,45.0,37.0,-100.00,ESE,107,5.0,7.0,74,0.00,,,0.00,2.000000,,2013-12-04 23:02:00,
2013-12-04 18:10:00,45.0,38.0,-100.00,East,98,5.0,8.0,75,0.00,,,0.00,0.000000,,2013-12-04 23:10:00,
2013-12-04 18:43:00,45.0,38.0,-100.00,East,98,5.0,8.0,75,0.00,,,0.00,0.000000,,2013-12-04 23:43:00,
2013-12-04 18:53:00,45.0,38.0,-100.00,East,98,5.0,8.0,75,0.00,,,0.00,0.000000,,2013-12-04 23:53:00,
2013-12-04 19:02:00,45.0,38.0,-100.00,East,98,5.0,8.0,75,0.00,,,0.00,0.000000,,2013-12-05 00:02:00,
2013-12-04 19:10:00,45.0,38.0,-100.00,ESE,108,6.0,9.0,75,0.00,,,0.00,0.000000,,2013-12-05 00:10:00,
2013-12-04 19:42:00,45.0,38.0,-100.00,ESE,108,6.0,9.0,75,0.00,,,0.00,0.000000,,2013-12-05 00:42:00,
2013-12-04 19:52:00,45.0,38.0,-100.00,ESE,108,6.0,9.0,75,0.00,,,0.00,0.000000,,2013-12-05 00:52:00,
2013-12-04 20:01:00,45.0,38.0,-100.00,ESE,108,6.0,9.0,75,0.00,,,0.00,0.000000,,2013-12-05 01:01:00,
2013-12-04 20:10:00,43.0,38.0,-100.00,East,90,6.0,10.0,81,0.00,,,0.00,0.000000,,2013-12-05 01:10:00,
2013-12-04 20:42:00,43.0,38.0,-100.00,East,90,6.0,10.0,81,0.00,,,0.00,0.000000,,2013-12-05 01:42:00,
2013-12-04 20:52:00,43.0,38.0,-100.00,East,90,6.0,10.0,81,0.00,,,0.00,0.000000,,2013-12-05 01:52:00,
2013-12-04 21:02:00,43.0,38.0,-100.00,East,90,6.0,10.0,81,0.00,,,0.00,0.000000,,2013-12-05 02:02:00,
2013-12-04 21:10:00,43.0,40.0,-100.00,ESE,104,6.0,10.0,88,0.00,,,0.00,0.000000,,2013-12-05 02:10:00,
2013-12-04 21:52:00,43.0,40.0,-100.00,ESE,104,6.0,10.0,88,0.00,,,0.00,0.000000,,2013-12-05 02:52:00,
2013-12-04 22:02:00,43.0,40.0,-100.00,ESE,104,6.0,10.0,88,0.00,,,0.00,0.000000,,2013-12-05 03:02:00,
2013-12-04 22:10:00,44.0,42.0,-100.00,East,95,5.0,9.0,91,0.00,,,0.00,0.000000,,2013-12-05 03:10:00,
2013-12-04 22:43:00,44.0,42.0,-100.00,East,95,5.0,9.0,91,0.00,,,0.00,0.000000,,2013-12-05 03:43:00,
2013-12-04 22:54:00,44.0,42.0,-100.00,East,95,5.0,9.0,91,0.00,,,0.00,0.000000,,2013-12-05 03:54:00,
2013-12-04 23:04:00,44.0,42.0,-100.00,East,95,5.0,9.0,91,0.00,,,0.00,0.000000,,2013-12-05 04:04:00,
2013-12-04 23:10:00,44.0,42.0,-100.00,East,86,7.0,9.0,92,0.00,,,0.00,0.000000,,2013-12-05 04:10:00,
2013-12-04 23:43:00,44.0,42.0,-100.00,East,86,7.0,9.0,92,0.00,,,0.00,0.000000,,2013-12-05 04:43:00,
2013-12-04 23:53:00,44.0,42.0,-100.00,East,86,7.0,9.0,92,0.00,,,0.00,0.000000,,2013-12-05 04:53:00,